Year,Month,Day,Hour,Minute,Value (Times are PST for temperature in C)
2017,04,29,00,00,10.60
2017,04,29,00,01,10.50
2017,04,29,00,02,10.60
2017,04,29,00,03,10.60
2017,04,29,00,04,10.50
2017,04,29,00,05,10.50
2017,04,29,00,06,10.50
2017,04,29,00,07,10.50
2017,04,29,00,08,10.50
2017,04,29,00,09,10.40
2017,04,29,00,10,10.40
2017,04,29,00,11,10.40
2017,04,29,00,12,10.40
2017,04,29,00,13,10.30
2017,04,29,00,14,10.30
2017,04,29,00,15,10.30
2017,04,29,00,16,10.20
2017,04,29,00,17,10.20
2017,04,29,00,18,10.20
2017,04,29,00,19,10.10
2017,04,29,00,20,10.10
2017,04,29,00,21,10.10
2017,04,29,00,22,10.10
2017,04,29,00,23,10.10
2017,04,29,00,24,10.10
2017,04,29,00,25,10.00
2017,04,29,00,26,10.00
2017,04,29,00,27,10.00
2017,04,29,00,28,10.00
2017,04,29,00,29,10.00
2017,04,29,00,30,10.00
2017,04,29,00,31,10.00
2017,04,29,00,32,9.90
2017,04,29,00,33,9.90
2017,04,29,00,34,9.90
2017,04,29,00,35,9.90
2017,04,29,00,36,9.90
2017,04,29,00,37,9.90
2017,04,29,00,38,9.90
2017,04,29,00,39,9.90
2017,04,29,00,40,9.90
2017,04,29,00,41,9.90
2017,04,29,00,42,9.90
2017,04,29,00,43,9.90
2017,04,29,00,44,9.80
2017,04,29,00,45,9.80
2017,04,29,00,46,9.80
2017,04,29,00,47,9.80
2017,04,29,00,48,9.70
2017,04,29,00,49,9.70
2017,04,29,00,50,9.70
2017,04,29,00,51,9.70
2017,04,29,00,52,9.70
2017,04,29,00,53,9.70
2017,04,29,00,54,9.70
2017,04,29,00,55,9.60
2017,04,29,00,56,9.60
2017,04,29,00,57,9.60
2017,04,29,00,58,9.60
2017,04,29,00,59,9.60
2017,04,29,01,00,9.60
2017,04,29,01,01,9.60
2017,04,29,01,02,9.60
2017,04,29,01,03,9.60
2017,04,29,01,04,9.60
2017,04,29,01,05,9.60
2017,04,29,01,06,9.60
2017,04,29,01,07,9.60
2017,04,29,01,08,9.60
2017,04,29,01,09,9.60
2017,04,29,01,10,9.60
2017,04,29,01,11,9.60
2017,04,29,01,12,9.60
2017,04,29,01,13,9.60
2017,04,29,01,14,9.60
2017,04,29,01,15,9.60
2017,04,29,01,16,9.60
2017,04,29,01,17,9.60
2017,04,29,01,18,9.60
2017,04,29,01,19,9.60
2017,04,29,01,20,9.60
2017,04,29,01,21,9.60
2017,04,29,01,22,9.60
2017,04,29,01,23,9.60
2017,04,29,01,24,9.60
2017,04,29,01,25,9.60
2017,04,29,01,26,9.60
2017,04,29,01,27,9.60
2017,04,29,01,28,9.60
2017,04,29,01,29,9.70
2017,04,29,01,30,9.70
2017,04,29,01,31,9.70
2017,04,29,01,32,9.70
2017,04,29,01,33,9.70
2017,04,29,01,34,9.70
2017,04,29,01,35,9.70
2017,04,29,01,36,9.70
2017,04,29,01,37,9.70
2017,04,29,01,38,9.70
2017,04,29,01,39,9.70
2017,04,29,01,40,9.70
2017,04,29,01,41,9.70
2017,04,29,01,42,9.70
2017,04,29,01,43,9.70
2017,04,29,01,44,9.70
2017,04,29,01,45,9.70
2017,04,29,01,46,9.70
2017,04,29,01,47,9.70
2017,04,29,01,48,9.60
2017,04,29,01,49,9.60
2017,04,29,01,50,9.60
2017,04,29,01,51,9.60
2017,04,29,01,52,9.60
2017,04,29,01,53,9.60
2017,04,29,01,54,9.60
2017,04,29,01,55,9.60
2017,04,29,01,56,9.60
2017,04,29,01,57,9.60
2017,04,29,01,58,9.60
2017,04,29,01,59,9.60
2017,04,29,02,00,9.60
2017,04,29,02,01,9.60
2017,04,29,02,02,9.60
2017,04,29,02,03,9.60
2017,04,29,02,04,9.60
2017,04,29,02,05,9.50
2017,04,29,02,06,9.50
2017,04,29,02,07,9.50
2017,04,29,02,08,9.50
2017,04,29,02,09,9.50
2017,04,29,02,10,9.50
2017,04,29,02,11,9.50
2017,04,29,02,12,9.40
2017,04,29,02,13,9.40
2017,04,29,02,14,9.40
2017,04,29,02,15,9.40
2017,04,29,02,16,9.40
2017,04,29,02,17,9.30
2017,04,29,02,18,9.30
2017,04,29,02,19,9.30
2017,04,29,02,20,9.30
2017,04,29,02,21,9.30
2017,04,29,02,22,9.20
2017,04,29,02,23,9.20
2017,04,29,02,24,9.20
2017,04,29,02,25,9.20
2017,04,29,02,26,9.20
2017,04,29,02,27,9.10
2017,04,29,02,28,9.10
2017,04,29,02,29,9.10
2017,04,29,02,30,9.10
2017,04,29,02,31,9.10
2017,04,29,02,32,9.00
2017,04,29,02,33,9.00
2017,04,29,02,34,9.00
2017,04,29,02,35,9.00
2017,04,29,02,36,9.00
2017,04,29,02,37,9.00
2017,04,29,02,38,8.90
2017,04,29,02,39,8.90
2017,04,29,02,40,8.90
2017,04,29,02,41,8.90
2017,04,29,02,42,8.90
2017,04,29,02,43,8.90
2017,04,29,02,44,8.90
2017,04,29,02,45,8.90
2017,04,29,02,46,8.90
2017,04,29,02,47,8.90
2017,04,29,02,48,8.90
2017,04,29,02,49,8.80
2017,04,29,02,50,8.80
2017,04,29,02,51,8.80
2017,04,29,02,52,8.80
2017,04,29,02,53,8.80
2017,04,29,02,54,8.80
2017,04,29,02,55,8.80
2017,04,29,02,56,8.80
2017,04,29,02,57,8.80
2017,04,29,02,58,8.80
2017,04,29,02,59,8.80
2017,04,29,03,00,8.80
2017,04,29,03,01,8.80
2017,04,29,03,02,8.70
2017,04,29,03,03,8.70
2017,04,29,03,04,8.70
2017,04,29,03,05,8.70
2017,04,29,03,06,8.70
2017,04,29,03,07,8.70
2017,04,29,03,08,8.60
2017,04,29,03,09,8.60
2017,04,29,03,10,8.60
2017,04,29,03,11,8.60
2017,04,29,03,12,8.60
2017,04,29,03,13,8.60
2017,04,29,03,14,8.60
2017,04,29,03,15,8.60
2017,04,29,03,16,8.60
2017,04,29,03,17,8.60
2017,04,29,03,18,8.60
2017,04,29,03,19,8.50
2017,04,29,03,20,8.50
2017,04,29,03,21,8.50
2017,04,29,03,22,8.50
2017,04,29,03,23,8.50
2017,04,29,03,24,8.50
2017,04,29,03,25,8.50
2017,04,29,03,26,8.50
2017,04,29,03,27,8.50
2017,04,29,03,28,8.50
2017,04,29,03,29,8.50
2017,04,29,03,30,8.40
2017,04,29,03,31,8.40
2017,04,29,03,32,8.40
2017,04,29,03,33,8.40
2017,04,29,03,34,8.40
2017,04,29,03,35,8.40
2017,04,29,03,36,8.40
2017,04,29,03,37,8.40
2017,04,29,03,38,8.40
2017,04,29,03,39,8.40
2017,04,29,03,40,8.40
2017,04,29,03,41,8.40
2017,04,29,03,42,8.40
2017,04,29,03,43,8.40
2017,04,29,03,44,8.40
2017,04,29,03,45,8.40
2017,04,29,03,46,8.40
2017,04,29,03,47,8.40
2017,04,29,03,48,8.30
2017,04,29,03,49,8.40
2017,04,29,03,50,8.30
2017,04,29,03,51,8.30
2017,04,29,03,52,8.40
2017,04,29,03,53,8.40
2017,04,29,03,54,8.40
2017,04,29,03,55,8.40
2017,04,29,03,56,8.40
2017,04,29,03,57,8.40
2017,04,29,03,58,8.40
2017,04,29,03,59,8.40
2017,04,29,04,00,8.40
2017,04,29,04,01,8.40
2017,04,29,04,02,8.40
2017,04,29,04,03,8.40
2017,04,29,04,04,8.40
2017,04,29,04,05,8.40
2017,04,29,04,06,8.40
2017,04,29,04,07,8.40
2017,04,29,04,08,8.40
2017,04,29,04,09,8.40
2017,04,29,04,10,8.40
2017,04,29,04,11,8.40
2017,04,29,04,12,8.40
2017,04,29,04,13,8.40
2017,04,29,04,14,8.40
2017,04,29,04,15,8.40
2017,04,29,04,16,8.40
2017,04,29,04,17,8.40
2017,04,29,04,18,8.40
2017,04,29,04,19,8.40
2017,04,29,04,20,8.40
2017,04,29,04,21,8.40
2017,04,29,04,22,8.40
2017,04,29,04,23,8.40
2017,04,29,04,24,8.40
2017,04,29,04,25,8.40
2017,04,29,04,26,8.40
2017,04,29,04,27,8.40
2017,04,29,04,28,8.40
2017,04,29,04,29,8.40
2017,04,29,04,30,8.40
2017,04,29,04,31,8.40
2017,04,29,04,32,8.40
2017,04,29,04,33,8.40
2017,04,29,04,34,8.40
2017,04,29,04,35,8.30
2017,04,29,04,36,8.30
2017,04,29,04,37,8.30
2017,04,29,04,38,8.30
2017,04,29,04,39,8.30
2017,04,29,04,40,8.30
2017,04,29,04,41,8.30
2017,04,29,04,42,8.30
2017,04,29,04,43,8.30
2017,04,29,04,44,8.30
2017,04,29,04,45,8.30
2017,04,29,04,46,8.30
2017,04,29,04,47,8.30
2017,04,29,04,48,8.20
2017,04,29,04,49,8.20
2017,04,29,04,50,8.20
2017,04,29,04,51,8.20
2017,04,29,04,52,8.20
2017,04,29,04,53,8.20
2017,04,29,04,54,8.20
2017,04,29,04,55,8.20
2017,04,29,04,56,8.20
2017,04,29,04,57,8.20
2017,04,29,04,58,8.20
2017,04,29,04,59,8.10
2017,04,29,05,00,8.10
2017,04,29,05,01,8.10
2017,04,29,05,02,8.10
2017,04,29,05,03,8.10
2017,04,29,05,04,8.10
2017,04,29,05,05,8.10
2017,04,29,05,06,8.10
2017,04,29,05,07,8.10
2017,04,29,05,08,8.10
2017,04,29,05,09,8.00
2017,04,29,05,10,8.00
2017,04,29,05,11,8.00
2017,04,29,05,12,8.00
2017,04,29,05,13,8.00
2017,04,29,05,14,8.00
2017,04,29,05,15,8.00
2017,04,29,05,16,8.00
2017,04,29,05,17,8.00
2017,04,29,05,18,8.00
2017,04,29,05,19,8.00
2017,04,29,05,20,8.00
2017,04,29,05,21,8.00
2017,04,29,05,22,8.00
2017,04,29,05,23,7.90
2017,04,29,05,24,7.90
2017,04,29,05,25,7.90
2017,04,29,05,26,7.90
2017,04,29,05,27,7.90
2017,04,29,05,28,7.90
2017,04,29,05,29,7.90
2017,04,29,05,30,7.90
2017,04,29,05,31,7.90
2017,04,29,05,32,7.90
2017,04,29,05,33,7.90
2017,04,29,05,34,7.90
2017,04,29,05,35,7.90
2017,04,29,05,36,7.90
2017,04,29,05,37,7.90
2017,04,29,05,38,7.90
2017,04,29,05,39,7.90
2017,04,29,05,40,7.90
2017,04,29,05,41,7.90
2017,04,29,05,42,7.90
2017,04,29,05,43,7.90
2017,04,29,05,44,7.80
2017,04,29,05,45,7.80
2017,04,29,05,46,7.80
2017,04,29,05,47,7.80
2017,04,29,05,48,7.80
2017,04,29,05,49,7.80
2017,04,29,05,50,7.70
2017,04,29,05,51,7.70
2017,04,29,05,52,7.70
2017,04,29,05,53,7.70
2017,04,29,05,54,7.70
2017,04,29,05,55,7.70
2017,04,29,05,56,7.70
2017,04,29,05,57,7.70
2017,04,29,05,58,7.70
2017,04,29,05,59,7.70
2017,04,29,06,00,7.70
2017,04,29,06,01,7.70
2017,04,29,06,02,7.60
2017,04,29,06,03,7.60
2017,04,29,06,04,7.60
2017,04,29,06,05,7.60
2017,04,29,06,06,7.60
2017,04,29,06,07,7.60
2017,04,29,06,08,7.60
2017,04,29,06,09,7.60
2017,04,29,06,10,7.60
2017,04,29,06,11,7.60
2017,04,29,06,12,7.60
2017,04,29,06,13,7.70
2017,04,29,06,14,7.70
2017,04,29,06,15,7.70
2017,04,29,06,16,7.80
2017,04,29,06,17,7.80
2017,04,29,06,18,7.90
2017,04,29,06,19,7.90
2017,04,29,06,20,7.90
2017,04,29,06,21,8.00
2017,04,29,06,22,8.00
2017,04,29,06,23,8.00
2017,04,29,06,24,8.10
2017,04,29,06,25,8.00
2017,04,29,06,26,8.10
2017,04,29,06,27,8.10
2017,04,29,06,28,8.10
2017,04,29,06,29,8.10
2017,04,29,06,30,8.10
2017,04,29,06,31,8.10
2017,04,29,06,32,8.10
2017,04,29,06,33,8.10
2017,04,29,06,34,8.10
2017,04,29,06,35,8.10
2017,04,29,06,36,8.10
2017,04,29,06,37,8.10
2017,04,29,06,38,8.10
2017,04,29,06,39,8.10
2017,04,29,06,40,8.10
2017,04,29,06,41,8.10
2017,04,29,06,42,8.00
2017,04,29,06,43,8.10
2017,04,29,06,44,8.10
2017,04,29,06,45,8.00
2017,04,29,06,46,8.00
2017,04,29,06,47,8.00
2017,04,29,06,48,8.00
2017,04,29,06,49,8.00
2017,04,29,06,50,8.00
2017,04,29,06,51,8.00
2017,04,29,06,52,8.00
2017,04,29,06,53,8.00
2017,04,29,06,54,8.00
2017,04,29,06,55,8.00
2017,04,29,06,56,8.00
2017,04,29,06,57,8.10
2017,04,29,06,58,8.10
2017,04,29,06,59,8.10
2017,04,29,07,00,8.10
2017,04,29,07,01,8.10
2017,04,29,07,02,8.10
2017,04,29,07,03,8.10
2017,04,29,07,04,8.10
2017,04,29,07,05,8.10
2017,04,29,07,06,8.10
2017,04,29,07,07,8.20
2017,04,29,07,08,8.20
2017,04,29,07,09,8.20
2017,04,29,07,10,8.20
2017,04,29,07,11,8.20
2017,04,29,07,12,8.20
2017,04,29,07,13,8.30
2017,04,29,07,14,8.30
2017,04,29,07,15,8.30
2017,04,29,07,16,8.30
2017,04,29,07,17,8.30
2017,04,29,07,18,8.30
2017,04,29,07,19,8.30
2017,04,29,07,20,8.30
2017,04,29,07,21,8.40
2017,04,29,07,22,8.40
2017,04,29,07,23,8.40
2017,04,29,07,24,8.40
2017,04,29,07,25,8.40
2017,04,29,07,26,8.40
2017,04,29,07,27,8.40
2017,04,29,07,28,8.40
2017,04,29,07,29,8.40
2017,04,29,07,30,8.40
2017,04,29,07,31,8.50
2017,04,29,07,32,8.50
2017,04,29,07,33,8.50
2017,04,29,07,34,8.50
2017,04,29,07,35,8.50
2017,04,29,07,36,8.50
2017,04,29,07,37,8.50
2017,04,29,07,38,8.50
2017,04,29,07,39,8.50
2017,04,29,07,40,8.50
2017,04,29,07,41,8.50
2017,04,29,07,42,8.50
2017,04,29,07,43,8.50
2017,04,29,07,44,8.60
2017,04,29,07,45,8.60
2017,04,29,07,46,8.60
2017,04,29,07,47,8.60
2017,04,29,07,48,8.60
2017,04,29,07,49,8.60
2017,04,29,07,50,8.60
2017,04,29,07,51,8.60
2017,04,29,07,52,8.60
2017,04,29,07,53,8.60
2017,04,29,07,54,8.60
2017,04,29,07,55,8.60
2017,04,29,07,56,8.60
2017,04,29,07,57,8.60
2017,04,29,07,58,8.60
2017,04,29,07,59,8.60
2017,04,29,08,00,8.60
2017,04,29,08,01,8.60
2017,04,29,08,02,8.60
2017,04,29,08,03,8.60
2017,04,29,08,04,8.60
2017,04,29,08,05,8.60
2017,04,29,08,06,8.60
2017,04,29,08,07,8.60
2017,04,29,08,08,8.60
2017,04,29,08,09,8.60
2017,04,29,08,10,8.60
2017,04,29,08,11,8.60
2017,04,29,08,12,8.60
2017,04,29,08,13,8.60
2017,04,29,08,14,8.60
2017,04,29,08,15,8.60
2017,04,29,08,16,8.60
2017,04,29,08,17,8.60
2017,04,29,08,18,8.60
2017,04,29,08,19,8.60
2017,04,29,08,20,8.60
2017,04,29,08,21,8.70
2017,04,29,08,22,8.70
2017,04,29,08,23,8.70
2017,04,29,08,24,8.70
2017,04,29,08,25,8.70
2017,04,29,08,26,8.70
2017,04,29,08,27,8.70
2017,04,29,08,28,8.80
2017,04,29,08,29,8.80
2017,04,29,08,30,8.80
2017,04,29,08,31,8.80
2017,04,29,08,32,8.90
2017,04,29,08,33,8.90
2017,04,29,08,34,8.90
2017,04,29,08,35,8.90
2017,04,29,08,36,9.00
2017,04,29,08,37,9.00
2017,04,29,08,38,9.00
2017,04,29,08,39,9.10
2017,04,29,08,40,9.10
2017,04,29,08,41,9.10
2017,04,29,08,42,9.10
2017,04,29,08,43,9.10
2017,04,29,08,44,9.10
2017,04,29,08,45,9.10
2017,04,29,08,46,9.10
2017,04,29,08,47,9.10
2017,04,29,08,48,9.10
2017,04,29,08,49,9.10
2017,04,29,08,50,9.10
2017,04,29,08,51,9.10
2017,04,29,08,52,9.10
2017,04,29,08,53,9.10
2017,04,29,08,54,9.10
2017,04,29,08,55,9.10
2017,04,29,08,56,9.10
2017,04,29,08,57,9.10
2017,04,29,08,58,9.10
2017,04,29,08,59,9.10
2017,04,29,09,00,9.10
2017,04,29,09,01,9.10
2017,04,29,09,02,9.10
2017,04,29,09,03,9.10
2017,04,29,09,04,9.10
2017,04,29,09,05,9.10
2017,04,29,09,06,9.10
2017,04,29,09,07,9.10
2017,04,29,09,08,9.10
2017,04,29,09,09,9.00
2017,04,29,09,10,9.00
2017,04,29,09,11,9.00
2017,04,29,09,12,9.10
2017,04,29,09,13,9.10
2017,04,29,09,14,9.10
2017,04,29,09,15,9.10
2017,04,29,09,16,9.10
2017,04,29,09,17,9.10
2017,04,29,09,18,9.10
2017,04,29,09,19,9.10
2017,04,29,09,20,9.10
2017,04,29,09,21,9.10
2017,04,29,09,22,9.10
2017,04,29,09,23,9.10
2017,04,29,09,24,9.10
2017,04,29,09,25,9.10
2017,04,29,09,26,9.10
2017,04,29,09,27,9.10
2017,04,29,09,28,9.10
2017,04,29,09,29,9.10
2017,04,29,09,30,9.10
2017,04,29,09,31,9.10
2017,04,29,09,32,9.00
2017,04,29,09,33,9.00
2017,04,29,09,34,9.00
2017,04,29,09,35,9.00
2017,04,29,09,36,9.00
2017,04,29,09,37,8.90
2017,04,29,09,38,8.90
2017,04,29,09,39,8.80
2017,04,29,09,40,8.90
2017,04,29,09,41,8.80
2017,04,29,09,42,8.80
2017,04,29,09,43,8.70
2017,04,29,09,44,8.70
2017,04,29,09,45,8.60
2017,04,29,09,46,8.50
2017,04,29,09,47,8.50
2017,04,29,09,48,8.40
2017,04,29,09,49,8.40
2017,04,29,09,50,8.40
2017,04,29,09,51,8.30
2017,04,29,09,52,8.30
2017,04,29,09,53,8.30
2017,04,29,09,54,8.30
2017,04,29,09,55,8.20
2017,04,29,09,56,8.20
2017,04,29,09,57,8.20
2017,04,29,09,58,8.10
2017,04,29,09,59,8.10
2017,04,29,10,00,8.10
2017,04,29,10,01,8.00
2017,04,29,10,02,8.00
2017,04,29,10,03,7.90
2017,04,29,10,04,7.80
2017,04,29,10,05,7.80
2017,04,29,10,06,7.70
2017,04,29,10,07,7.70
2017,04,29,10,08,7.60
2017,04,29,10,09,7.50
2017,04,29,10,10,7.50
2017,04,29,10,11,7.40
2017,04,29,10,12,7.40
2017,04,29,10,13,7.30
2017,04,29,10,14,7.30
2017,04,29,10,15,7.20
2017,04,29,10,16,7.20
2017,04,29,10,17,7.20
2017,04,29,10,18,7.10
2017,04,29,10,19,7.10
2017,04,29,10,20,7.10
2017,04,29,10,21,7.00
2017,04,29,10,22,7.00
2017,04,29,10,23,7.00
2017,04,29,10,24,6.90
2017,04,29,10,25,6.90
2017,04,29,10,26,6.90
2017,04,29,10,27,6.90
2017,04,29,10,28,6.90
2017,04,29,10,29,6.90
2017,04,29,10,30,6.80
2017,04,29,10,31,6.80
2017,04,29,10,32,6.80
2017,04,29,10,33,6.80
2017,04,29,10,34,6.80
2017,04,29,10,35,6.90
2017,04,29,10,36,6.90
2017,04,29,10,37,6.90
2017,04,29,10,38,6.90
2017,04,29,10,39,6.90
2017,04,29,10,40,6.90
2017,04,29,10,41,6.90
2017,04,29,10,42,6.90
2017,04,29,10,43,6.90
2017,04,29,10,44,6.90
2017,04,29,10,45,6.90
2017,04,29,10,46,6.90
2017,04,29,10,47,7.00
2017,04,29,10,48,7.00
2017,04,29,10,49,7.00
2017,04,29,10,50,7.00
2017,04,29,10,51,7.00
2017,04,29,10,52,7.00
2017,04,29,10,53,7.00
2017,04,29,10,54,7.00
2017,04,29,10,55,7.00
2017,04,29,10,56,7.00
2017,04,29,10,57,7.00
2017,04,29,10,58,7.10
2017,04,29,10,59,7.10
2017,04,29,11,00,7.10
2017,04,29,11,01,7.10
2017,04,29,11,02,7.10
2017,04,29,11,03,7.10
2017,04,29,11,04,7.10
2017,04,29,11,05,7.20
2017,04,29,11,06,7.20
2017,04,29,11,07,7.20
2017,04,29,11,08,7.20
2017,04,29,11,09,7.30
2017,04,29,11,10,7.30
2017,04,29,11,11,7.30
2017,04,29,11,12,7.30
2017,04,29,11,13,7.30
2017,04,29,11,14,7.30
2017,04,29,11,15,7.30
2017,04,29,11,16,7.30
2017,04,29,11,17,7.30
2017,04,29,11,18,7.40
2017,04,29,11,19,7.40
2017,04,29,11,20,7.40
2017,04,29,11,21,7.40
2017,04,29,11,22,7.40
2017,04,29,11,23,7.40
2017,04,29,11,24,7.40
2017,04,29,11,25,7.40
2017,04,29,11,26,7.50
2017,04,29,11,27,7.50
2017,04,29,11,28,7.50
2017,04,29,11,29,7.60
2017,04,29,11,30,7.60
2017,04,29,11,31,7.60
2017,04,29,11,32,7.60
2017,04,29,11,33,7.60
2017,04,29,11,34,7.60
2017,04,29,11,35,7.70
2017,04,29,11,36,7.70
2017,04,29,11,37,7.70
2017,04,29,11,38,7.70
2017,04,29,11,39,7.70
2017,04,29,11,40,7.70
2017,04,29,11,41,7.70
2017,04,29,11,42,7.70
2017,04,29,11,43,7.70
2017,04,29,11,44,7.70
2017,04,29,11,45,7.70
2017,04,29,11,46,7.70
2017,04,29,11,47,7.70
2017,04,29,11,48,7.70
2017,04,29,11,49,7.70
2017,04,29,11,50,7.80
2017,04,29,11,51,7.80
2017,04,29,11,52,7.80
2017,04,29,11,53,7.80
2017,04,29,11,54,7.80
2017,04,29,11,55,7.80
2017,04,29,11,56,7.80
2017,04,29,11,57,7.80
2017,04,29,11,58,7.80
2017,04,29,11,59,7.70
2017,04,29,12,00,7.70
2017,04,29,12,01,7.70
2017,04,29,12,02,7.70
2017,04,29,12,03,7.70
2017,04,29,12,04,7.70
2017,04,29,12,05,7.70
2017,04,29,12,06,7.70
2017,04,29,12,07,7.70
2017,04,29,12,08,7.70
2017,04,29,12,09,7.70
2017,04,29,12,10,7.70
2017,04,29,12,11,7.70
2017,04,29,12,12,7.60
2017,04,29,12,13,7.60
2017,04,29,12,14,7.70
2017,04,29,12,15,7.60
2017,04,29,12,16,7.60
2017,04,29,12,17,7.60
2017,04,29,12,18,7.50
2017,04,29,12,19,7.50
2017,04,29,12,20,7.50
2017,04,29,12,21,7.50
2017,04,29,12,22,7.50
2017,04,29,12,23,7.50
2017,04,29,12,24,7.50
2017,04,29,12,25,7.50
2017,04,29,12,26,7.50
2017,04,29,12,27,7.50
2017,04,29,12,28,7.50
2017,04,29,12,29,7.50
2017,04,29,12,30,7.50
2017,04,29,12,31,7.50
2017,04,29,12,32,7.50
2017,04,29,12,33,7.50
2017,04,29,12,34,7.40
2017,04,29,12,35,7.40
2017,04,29,12,36,7.40
2017,04,29,12,37,7.40
2017,04,29,12,38,7.30
2017,04,29,12,39,7.30
2017,04,29,12,40,7.30
2017,04,29,12,41,7.40
2017,04,29,12,42,7.40
2017,04,29,12,43,7.40
2017,04,29,12,44,7.40
2017,04,29,12,45,7.40
2017,04,29,12,46,7.40
2017,04,29,12,47,7.40
2017,04,29,12,48,7.50
2017,04,29,12,49,7.50
2017,04,29,12,50,7.50
2017,04,29,12,51,7.60
2017,04,29,12,52,7.60
2017,04,29,12,53,7.60
2017,04,29,12,54,7.60
2017,04,29,12,55,7.60
2017,04,29,12,56,7.60
2017,04,29,12,57,7.60
2017,04,29,12,58,7.60
2017,04,29,12,59,7.60
2017,04,29,13,00,7.60
2017,04,29,13,01,7.60
2017,04,29,13,02,7.60
2017,04,29,13,03,7.60
2017,04,29,13,04,7.60
2017,04,29,13,05,7.60
2017,04,29,13,06,7.60
2017,04,29,13,07,7.60
2017,04,29,13,08,7.60
2017,04,29,13,09,7.70
2017,04,29,13,10,7.70
2017,04,29,13,11,7.80
2017,04,29,13,12,7.80
2017,04,29,13,13,7.80
2017,04,29,13,14,7.90
2017,04,29,13,15,7.90
2017,04,29,13,16,7.90
2017,04,29,13,17,7.90
2017,04,29,13,18,8.00
2017,04,29,13,19,8.00
2017,04,29,13,20,8.00
2017,04,29,13,21,8.00
2017,04,29,13,22,8.00
2017,04,29,13,23,8.10
2017,04,29,13,24,8.10
2017,04,29,13,25,8.10
2017,04,29,13,26,8.10
2017,04,29,13,27,8.10
2017,04,29,13,28,8.10
2017,04,29,13,29,8.10
2017,04,29,13,30,8.10
2017,04,29,13,31,8.10
2017,04,29,13,32,8.10
2017,04,29,13,33,8.10
2017,04,29,13,34,8.10
2017,04,29,13,35,8.10
2017,04,29,13,36,8.10
2017,04,29,13,37,8.10
2017,04,29,13,38,8.10
2017,04,29,13,39,8.10
2017,04,29,13,40,8.10
2017,04,29,13,41,8.10
2017,04,29,13,42,8.20
2017,04,29,13,43,8.20
2017,04,29,13,44,8.20
2017,04,29,13,45,8.10
2017,04,29,13,46,8.10
2017,04,29,13,47,8.20
2017,04,29,13,48,8.20
2017,04,29,13,49,8.10
2017,04,29,13,50,8.10
2017,04,29,13,51,8.20
2017,04,29,13,52,8.20
2017,04,29,13,53,8.20
2017,04,29,13,54,8.20
2017,04,29,13,55,8.20
2017,04,29,13,56,8.20
2017,04,29,13,57,8.20
2017,04,29,13,58,8.20
2017,04,29,13,59,8.20
2017,04,29,14,00,8.30
2017,04,29,14,01,8.30
2017,04,29,14,02,8.30
2017,04,29,14,03,8.30
2017,04,29,14,04,8.30
2017,04,29,14,05,8.20
2017,04,29,14,06,8.20
2017,04,29,14,07,8.20
2017,04,29,14,08,8.20
2017,04,29,14,09,8.20
2017,04,29,14,10,8.20
2017,04,29,14,11,8.20
2017,04,29,14,12,8.20
2017,04,29,14,13,8.20
2017,04,29,14,14,8.20
2017,04,29,14,15,8.20
2017,04,29,14,16,8.20
2017,04,29,14,17,8.20
2017,04,29,14,18,8.20
2017,04,29,14,19,8.20
2017,04,29,14,20,8.20
2017,04,29,14,21,8.30
2017,04,29,14,22,8.30
2017,04,29,14,23,8.20
2017,04,29,14,24,8.20
2017,04,29,14,25,8.20
2017,04,29,14,26,8.20
2017,04,29,14,27,8.20
2017,04,29,14,28,8.20
2017,04,29,14,29,8.20
2017,04,29,14,30,8.20
2017,04,29,14,31,8.30
2017,04,29,14,32,8.30
2017,04,29,14,33,8.30
2017,04,29,14,34,8.30
2017,04,29,14,35,8.30
2017,04,29,14,36,8.30
2017,04,29,14,37,8.30
2017,04,29,14,38,8.30
2017,04,29,14,39,8.30
2017,04,29,14,40,8.30
2017,04,29,14,41,8.30
2017,04,29,14,42,8.30
2017,04,29,14,43,8.30
2017,04,29,14,44,8.30
2017,04,29,14,45,8.30
2017,04,29,14,46,8.30
2017,04,29,14,47,8.30
2017,04,29,14,48,8.30
2017,04,29,14,49,8.30
2017,04,29,14,50,8.30
2017,04,29,14,51,8.30
2017,04,29,14,52,8.30
2017,04,29,14,53,8.30
2017,04,29,14,54,8.30
2017,04,29,14,55,8.30
2017,04,29,14,56,8.30
2017,04,29,14,57,8.30
2017,04,29,14,58,8.30
2017,04,29,14,59,8.30
2017,04,29,15,00,8.30
2017,04,29,15,01,8.30
2017,04,29,15,02,8.30
2017,04,29,15,03,8.30
2017,04,29,15,04,8.30
2017,04,29,15,05,8.30
2017,04,29,15,06,8.40
2017,04,29,15,07,8.30
2017,04,29,15,08,8.30
2017,04,29,15,09,8.30
2017,04,29,15,10,8.30
2017,04,29,15,11,8.30
2017,04,29,15,12,8.30
2017,04,29,15,13,8.30
2017,04,29,15,14,8.40
2017,04,29,15,15,8.40
2017,04,29,15,16,8.40
2017,04,29,15,17,8.40
2017,04,29,15,18,8.40
2017,04,29,15,19,8.40
2017,04,29,15,20,8.40
2017,04,29,15,21,8.30
2017,04,29,15,22,8.30
2017,04,29,15,23,8.30
2017,04,29,15,24,8.30
2017,04,29,15,25,8.30
2017,04,29,15,26,8.30
2017,04,29,15,27,8.30
2017,04,29,15,28,8.30
2017,04,29,15,29,8.30
2017,04,29,15,30,8.30
2017,04,29,15,31,8.30
2017,04,29,15,32,8.30
2017,04,29,15,33,8.30
2017,04,29,15,34,8.40
2017,04,29,15,35,8.40
2017,04,29,15,36,8.40
2017,04,29,15,37,8.40
2017,04,29,15,38,8.50
2017,04,29,15,39,8.50
2017,04,29,15,40,8.50
2017,04,29,15,41,8.50
2017,04,29,15,42,8.50
2017,04,29,15,43,8.60
2017,04,29,15,44,8.60
2017,04,29,15,45,8.60
2017,04,29,15,46,8.60
2017,04,29,15,47,8.70
2017,04,29,15,48,8.60
2017,04,29,15,49,8.60
2017,04,29,15,50,8.60
2017,04,29,15,51,8.60
2017,04,29,15,52,8.60
2017,04,29,15,53,8.60
2017,04,29,15,54,8.60
2017,04,29,15,55,8.60
2017,04,29,15,56,8.60
2017,04,29,15,57,8.60
2017,04,29,15,58,8.60
2017,04,29,15,59,8.60
2017,04,29,16,00,8.60
2017,04,29,16,01,8.50
2017,04,29,16,02,8.60
2017,04,29,16,03,8.60
2017,04,29,16,04,8.60
2017,04,29,16,05,8.60
2017,04,29,16,06,8.50
2017,04,29,16,07,8.50
2017,04,29,16,08,8.40
2017,04,29,16,09,8.40
2017,04,29,16,10,8.40
2017,04,29,16,11,8.40
2017,04,29,16,12,8.40
2017,04,29,16,13,8.40
2017,04,29,16,14,8.30
2017,04,29,16,15,8.30
2017,04,29,16,16,8.30
2017,04,29,16,17,8.30
2017,04,29,16,18,8.30
2017,04,29,16,19,8.30
2017,04,29,16,20,8.20
2017,04,29,16,21,8.20
2017,04,29,16,22,8.20
2017,04,29,16,23,8.20
2017,04,29,16,24,8.20
2017,04,29,16,25,8.20
2017,04,29,16,26,8.20
2017,04,29,16,27,8.20
2017,04,29,16,28,8.20
2017,04,29,16,29,8.20
2017,04,29,16,30,8.20
2017,04,29,16,31,8.20
2017,04,29,16,32,8.20
2017,04,29,16,33,8.20
2017,04,29,16,34,8.20
2017,04,29,16,35,8.20
2017,04,29,16,36,8.20
2017,04,29,16,37,8.20
2017,04,29,16,38,8.20
2017,04,29,16,39,8.20
2017,04,29,16,40,8.20
2017,04,29,16,41,8.20
2017,04,29,16,42,8.20
2017,04,29,16,43,8.20
2017,04,29,16,44,8.20
2017,04,29,16,45,8.20
2017,04,29,16,46,8.10
2017,04,29,16,47,8.10
2017,04,29,16,48,8.10
2017,04,29,16,49,8.10
2017,04,29,16,50,8.20
2017,04,29,16,51,8.20
2017,04,29,16,52,8.20
2017,04,29,16,53,8.20
2017,04,29,16,54,8.20
2017,04,29,16,55,8.10
2017,04,29,16,56,8.10
2017,04,29,16,57,8.10
2017,04,29,16,58,8.10
2017,04,29,16,59,8.10
2017,04,29,17,00,8.00
2017,04,29,17,01,8.00
2017,04,29,17,02,8.00
2017,04,29,17,03,8.00
2017,04,29,17,04,8.00
2017,04,29,17,05,8.00
2017,04,29,17,06,8.10
2017,04,29,17,07,8.10
2017,04,29,17,08,8.10
2017,04,29,17,09,8.10
2017,04,29,17,10,8.10
2017,04,29,17,11,8.10
2017,04,29,17,12,8.10
2017,04,29,17,13,8.10
2017,04,29,17,14,8.10
2017,04,29,17,15,8.10
2017,04,29,17,16,8.10
2017,04,29,17,17,8.10
2017,04,29,17,18,8.10
2017,04,29,17,19,8.10
2017,04,29,17,20,8.10
2017,04,29,17,21,8.10
2017,04,29,17,22,8.10
2017,04,29,17,23,8.10
2017,04,29,17,24,8.10
2017,04,29,17,25,8.10
2017,04,29,17,26,8.10
2017,04,29,17,27,8.10
2017,04,29,17,28,8.10
2017,04,29,17,29,8.10
2017,04,29,17,30,8.10
2017,04,29,17,31,8.10
2017,04,29,17,32,8.10
2017,04,29,17,33,8.10
2017,04,29,17,34,8.10
2017,04,29,17,35,8.20
2017,04,29,17,36,8.20
2017,04,29,17,37,8.20
2017,04,29,17,38,8.20
2017,04,29,17,39,8.20
2017,04,29,17,40,8.20
2017,04,29,17,41,8.20
2017,04,29,17,42,8.20
2017,04,29,17,43,8.20
2017,04,29,17,44,8.20
2017,04,29,17,45,8.20
2017,04,29,17,46,8.20
2017,04,29,17,47,8.20
2017,04,29,17,48,8.20
2017,04,29,17,49,8.20
2017,04,29,17,50,8.20
2017,04,29,17,51,8.20
2017,04,29,17,52,8.20
2017,04,29,17,53,8.20
2017,04,29,17,54,8.20
2017,04,29,17,55,8.30
2017,04,29,17,56,8.30
2017,04,29,17,57,8.30
2017,04,29,17,58,8.30
2017,04,29,17,59,8.30
2017,04,29,18,00,8.30
2017,04,29,18,01,8.30
2017,04,29,18,02,8.40
2017,04,29,18,03,8.40
2017,04,29,18,04,8.40
2017,04,29,18,05,8.40